Wind_Speed
18 17 17 18 17 17 16 14 14 14 17 17 16 15 13 13 13 12 13 15 16 18 18 16 15 13 11 9 7 7 8 12 14 15 15 16 16 16 17 16 16 15 15 13
20 18 19 19 18 18 17 16 15 16 18 18 17 16 14 14 14 13 14 15 16 17 18 15 14 13 12 9 8 8 8 10 13 14 15 17 17 17 18 18 17 16 16 14
21 21 22 20 19 18 17 17 17 18 19 19 18 15 14 14 14 13 14 15 15 17 17 16 15 13 12 10 7 7 6 8 11 13 14 15 16 17 17 17 17 17 16 15
23 23 23 21 19 18 17 18 19 19 19 18 18 15 13 14 15 15 14 14 15 16 16 15 15 13 12 10 7 6 5 7 8 10 13 13 15 16 18 18 18 18 17 17
23 24 23 21 20 20 17 19 20 19 19 18 17 15 12 13 14 13 12 13 14 15 15 15 14 13 11 9 7 5 3 6 7 9 10 12 14 17 18 18 18 18 18 17
24 24 23 21 21 20 18 19 20 19 19 17 16 15 12 12 11 11 11 11 12 14 14 13 12 11 10 9 6 3 3 5 5 7 9 11 12 15 17 18 17 18 18 18
25 24 23 22 21 21 19 19 20 19 18 16 15 14 13 12 11 10 9 9 11 13 12 11 11 10 10 8 5 3 3 4 5 6 9 12 13 15 17 17 17 17 18 19
25 24 23 22 20 20 20 19 19 19 17 15 15 13 12 11 10 10 10 10 10 11 10 10 10 10 10 8 6 4 3 4 5 6 8 11 12 13 15 17 16 17 18 19
24 23 23 22 21 21 20 19 19 19 17 16 15 13 12 11 11 11 10 9 10 10 9 9 10 10 10 9 6 4 3 4 5 6 8 10 12 14 16 16 16 17 18 18
26 25 24 23 23 22 21 20 19 19 18 17 15 14 12 12 12 11 10 9 10 9 8 9 10 11 11 9 6 5 5 5 5 7 8 10 11 13 16 16 16 17 18 18
27 26 24 25 24 22 21 21 21 20 20 18 17 14 13 12 12 12 11 10 11 10 10 11 11 11 10 8 5 5 6 6 6 6 8 9 11 13 14 15 15 16 17 18
27 26 25 25 25 25 25 23 21 20 19 19 18 16 14 14 13 13 12 11 11 11 11 11 11 11 10 9 7 5 6 7 7 6 7 9 11 12 13 13 14 15 16 17
26 27 25 25 26 26 26 24 23 22 21 21 20 18 16 15 14 13 13 12 12 13 13 12 11 10 10 10 8 8 7 7 8 8 8 10 11 12 13 14 15 15 15 17
29 28 28 26 25 25 26 25 25 24 24 23 22 20 19 17 16 16 15 14 14 15 14 14 13 12 11 11 11 11 10 9 10 11 11 11 12 13 14 15 15 15 16 17
33 32 30 28 27 28 28 27 27 27 26 25 24 23 21 20 19 18 18 16 15 15 15 15 14 14 14 13 14 13 12 12 11 12 13 13 13 13 14 15 15 16 16 17
36 36 34 32 30 30 31 30 30 30 30 28 27 26 23 23 22 21 19 18 17 16 16 16 16 17 17 16 16 15 14 13 13 13 13 14 15 15 15 15 16 16 16 16
39 39 38 37 35 34 35 33 33 32 32 31 30 29 27 26 25 23 22 20 19 19 20 20 19 18 18 18 17 16 16 15 14 14 14 15 15 15 15 15 15 15 16 17
41 41 41 41 39 40 37 35 34 34 34 33 33 31 30 28 27 26 25 24 22 22 23 22 22 22 21 20 19 18 16 16 15 15 16 16 17 16 16 16 16 17 18 19
41 41 42 43 43 43 40 37 36 36 36 34 34 33 32 31 30 28 26 26 25 24 24 23 23 23 23 22 20 19 18 18 18 18 17 17 18 17 17 17 18 18 18 19
40 41 42 43 44 45 41 39 38 37 37 34 34 33 32 30 29 28 27 27 26 25 25 24 24 25 24 23 22 22 21 21 21 20 20 19 19 18 18 19 19 19 20 21
38 39 40 41 42 44 42 40 39 38 36 33 33 32 31 29 28 27 27 27 26 27 26 25 25 24 24 23 24 23 23 23 23 23 22 22 22 21 22 21 21 21 22 23
36 37 38 39 40 40 40 41 40 38 36 34 33 32 31 30 28 27 27 27 27 26 25 25 24 24 23 24 24 24 23 24 24 25 24 25 26 25 25 24 23 23 23 23
36 36 36 37 38 38 37 38 38 37 35 34 33 32 32 31 30 28 27 26 26 26 25 25 25 24 24 24 24 23 23 24 25 26 27 27 26 25 25 25 25 25 25 25
35 35 35 35 34 35 36 36 35 34 33 33 32 32 32 32 30 29 27 27 27 26 26 26 25 25 25 24 24 24 23 23 25 26 26 26 26 26 25 25 25 26 27 29
34 34 34 34 33 33 34 34 34 33 32 31 30 31 31 31 30 29 28 27 27 27 26 25 24 24 24 24 24 24 24 24 25 25 25 25 26 26 25 25 26 27 27 28
32 32 33 33 33 33 33 33 33 33 32 31 30 29 28 28 28 28 28 28 27 26 26 25 24 24 24 24 25 24 24 24 25 25 25 25 25 25 25 25 25 26 27 28
Wind_Direction
269 271 272 271 272 276 279 277 273 271 275 281 284 287 294 300 307 316 323 331 336 338 337 335 336 335 329 320 301 283 244 217 211 209 212 209 207 204 208 213 215 217 217 217
264 266 266 270 273 275 277 276 272 269 273 280 285 287 292 294 300 310 319 325 331 335 336 335 335 334 332 320 298 275 249 219 210 208 210 208 208 207 209 213 214 213 214 217
261 262 264 268 270 273 276 274 271 269 274 281 286 289 292 295 299 308 315 322 331 336 336 335 333 330 328 322 299 268 239 218 209 208 208 209 213 215 211 213 214 214 213 215
258 259 262 265 267 269 271 269 269 272 276 280 289 291 293 295 297 303 309 319 328 334 334 331 331 329 325 317 300 275 248 216 208 206 208 212 216 216 215 216 216 216 215 216
255 255 257 260 261 263 264 265 270 274 277 282 289 291 296 295 298 301 306 315 322 328 330 330 331 330 326 318 304 283 244 221 214 213 211 213 214 214 215 217 218 218 216 217
252 253 255 254 254 257 258 262 269 274 278 281 287 289 292 296 298 303 306 310 319 323 326 331 333 333 333 326 315 285 255 226 221 218 213 212 212 213 214 218 221 220 219 219
250 251 251 250 250 253 255 260 265 270 276 280 282 283 288 295 293 298 304 308 316 323 325 331 339 340 338 331 322 291 250 235 233 226 220 217 218 215 215 217 220 220 220 221
246 247 247 246 246 248 252 257 262 269 274 276 278 281 285 289 289 293 300 304 314 319 319 322 331 338 338 327 313 286 261 246 240 236 225 219 218 220 221 220 221 221 220 224
241 241 242 240 238 240 245 253 260 266 272 275 276 280 281 283 286 293 302 306 311 312 312 314 318 328 328 320 306 278 260 250 242 241 230 222 220 221 223 222 224 222 221 224
240 237 237 235 235 238 242 246 252 262 269 272 277 282 283 281 284 284 291 303 307 300 302 309 312 322 325 314 291 272 258 266 255 246 235 225 224 225 225 226 225 222 223 225
242 239 234 232 231 235 239 244 252 259 266 272 277 281 286 283 282 284 285 294 302 294 287 296 305 313 320 326 306 283 268 263 259 250 239 236 231 229 228 229 226 226 226 227
244 241 237 235 233 233 236 242 250 258 265 271 275 278 283 285 283 285 287 289 294 290 285 293 301 308 311 319 319 307 286 269 256 253 248 241 237 233 229 228 229 230 230 233
246 244 240 235 236 238 239 243 248 255 262 269 273 278 281 284 285 282 285 285 290 292 286 289 294 300 304 308 310 306 296 281 263 254 249 243 240 236 231 231 232 231 232 235
249 248 245 243 242 243 244 246 249 255 262 269 275 279 282 284 283 282 284 285 285 289 285 285 287 289 294 300 305 304 292 282 273 262 251 246 244 240 236 235 234 238 240 240
250 251 250 248 245 243 246 248 252 257 264 269 274 279 282 282 284 282 283 283 282 282 281 278 280 283 288 294 298 297 287 278 272 263 256 250 248 244 239 238 239 243 245 246
250 251 251 251 249 247 248 250 254 259 264 269 274 277 279 280 282 282 282 281 280 278 276 277 277 281 285 287 290 288 285 277 269 262 255 254 251 247 244 244 247 246 247 250
246 250 251 251 251 250 250 252 256 260 266 270 273 275 276 278 279 278 278 275 274 274 276 277 278 280 282 284 285 283 279 272 267 258 253 253 249 247 246 244 246 248 249 252
242 246 249 251 251 251 254 255 257 261 265 268 272 273 275 275 276 275 275 274 272 273 274 276 276 276 278 281 281 279 275 272 267 259 255 253 248 247 246 248 248 248 249 252
241 243 246 248 250 253 254 255 258 261 264 267 270 272 273 273 274 273 272 271 272 272 273 273 273 274 276 276 275 274 272 268 267 261 257 257 251 248 250 251 251 251 254 256
242 243 245 247 249 251 255 256 257 261 264 267 269 271 271 272 273 273 271 272 274 274 273 271 272 274 275 272 270 270 270 267 264 260 257 256 255 253 253 252 253 257 258 261
243 244 244 246 248 251 253 255 258 260 264 266 268 269 269 270 271 272 272 272 274 274 272 272 272 271 271 271 269 267 264 264 262 259 256 255 256 255 255 256 257 260 262 262
243 244 244 245 246 249 252 254 257 260 262 263 265 266 267 268 268 270 272 273 274 273 272 272 271 270 269 268 267 265 263 262 260 259 256 256 255 255 257 258 258 258 261 263
242 243 244 245 247 249 251 253 255 258 260 261 263 265 267 267 269 270 271 273 273 271 271 271 270 269 268 266 265 264 263 262 259 259 257 258 256 255 257 260 259 259 261 263
240 241 243 245 246 247 248 250 253 256 258 260 262 264 265 267 268 268 269 272 272 270 270 270 269 267 266 264 262 263 263 262 260 259 257 256 256 257 257 259 261 261 265 267
240 242 243 244 244 245 246 248 249 252 256 258 260 262 264 266 265 265 268 270 270 269 269 268 267 265 264 262 261 261 261 260 258 257 258 258 256 256 256 258 260 263 265 267
241 243 243 243 243 245 244 246 248 251 254 256 259 260 261 262 263 265 266 267 267 266 266 266 265 264 264 262 261 260 260 258 257 256 255 256 255 255 257 258 259 262 265 268
Height
5872 5873 5872 5872 5872 5872 5872 5872 5873 5872 5871 5871 5871 5870 5870 5869 5868 5867 5865 5863 5860 5857 5854 5851 5849 5847 5845 5843 5841 5840 5840 5841 5842 5845 5849 5852 5855 5858 5861 5864 5867 5869 5872 5874
5868 5869 5868 5868 5869 5869 5869 5870 5870 5870 5868 5868 5868 5868 5867 5866 5865 5865 5863 5861 5860 5857 5854 5850 5848 5846 5844 5841 5839 5838 5837 5838 5840 5844 5847 5850 5853 5855 5859 5862 5864 5867 5870 5872
5863 5865 5864 5865 5865 5866 5866 5866 5866 5866 5866 5865 5865 5865 5864 5864 5862 5862 5861 5859 5858 5856 5853 5850 5847 5845 5843 5841 5839 5837 5837 5838 5839 5842 5844 5847 5850 5853 5856 5859 5863 5865 5867 5870
5858 5859 5860 5861 5861 5862 5862 5863 5863 5863 5863 5863 5863 5862 5862 5861 5860 5859 5858 5857 5856 5854 5852 5849 5847 5844 5842 5839 5838 5837 5836 5837 5838 5840 5842 5845 5848 5851 5854 5857 5860 5863 5865 5868
5854 5854 5855 5857 5857 5858 5859 5858 5859 5860 5860 5860 5860 5859 5860 5858 5857 5857 5856 5855 5854 5853 5850 5848 5845 5843 5840 5838 5836 5836 5835 5836 5837 5839 5840 5843 5846 5849 5852 5855 5858 5860 5863 5865
5849 5849 5851 5853 5853 5854 5855 5855 5856 5856 5857 5858 5857 5857 5857 5856 5855 5855 5854 5853 5852 5851 5848 5846 5844 5842 5840 5837 5836 5835 5835 5836 5836 5837 5839 5841 5843 5847 5849 5852 5855 5857 5860 5863
5843 5845 5846 5848 5848 5849 5851 5852 5853 5853 5854 5855 5854 5854 5855 5853 5853 5853 5852 5851 5850 5848 5846 5845 5843 5841 5840 5837 5836 5835 5835 5836 5836 5837 5838 5840 5842 5844 5847 5850 5852 5855 5857 5860
5838 5840 5842 5843 5844 5845 5847 5849 5850 5851 5851 5851 5851 5851 5852 5851 5851 5850 5850 5849 5848 5846 5845 5844 5843 5841 5840 5838 5836 5835 5835 5835 5835 5836 5837 5838 5840 5842 5844 5846 5849 5852 5855 5857
5832 5835 5836 5838 5839 5841 5843 5844 5846 5847 5847 5847 5848 5849 5849 5849 5848 5848 5847 5847 5846 5845 5844 5843 5842 5840 5839 5837 5836 5835 5834 5834 5835 5835 5835 5836 5837 5839 5841 5844 5846 5849 5852 5854
5827 5830 5831 5832 5835 5836 5839 5840 5841 5842 5843 5843 5845 5845 5846 5846 5846 5846 5845 5845 5843 5843 5842 5841 5840 5839 5837 5836 5835 5834 5834 5833 5833 5833 5833 5834 5836 5837 5839 5841 5843 5845 5848 5851
5821 5825 5827 5828 5830 5832 5834 5836 5837 5838 5839 5840 5841 5844 5843 5843 5843 5843 5843 5842 5841 5840 5840 5839 5838 5837 5836 5834 5833 5833 5833 5832 5832 5832 5832 5833 5834 5835 5837 5839 5840 5843 5845 5847
5816 5820 5822 5824 5825 5826 5829 5831 5833 5835 5836 5836 5837 5842 5840 5840 5840 5840 5840 5839 5839 5838 5838 5837 5836 5836 5835 5833 5832 5832 5831 5831 5831 5831 5831 5831 5832 5833 5835 5837 5838 5840 5842 5844
5811 5814 5817 5819 5822 5823 5824 5826 5828 5830 5831 5832 5833 5837 5836 5836 5837 5837 5836 5836 5836 5836 5835 5835 5834 5834 5833 5832 5830 5830 5829 5829 5829 5829 5829 5829 5830 5831 5833 5834 5835 5837 5838 5840
5805 5807 5812 5815 5817 5818 5819 5822 5824 5825 5826 5828 5829 5831 5832 5832 5833 5833 5833 5833 5833 5833 5832 5832 5831 5831 5830 5830 5828 5827 5827 5827 5826 5826 5827 5827 5828 5829 5830 5831 5832 5834 5835 5836
5798 5801 5804 5808 5811 5812 5814 5816 5818 5820 5821 5823 5825 5826 5827 5828 5828 5828 5829 5829 5829 5829 5829 5829 5828 5828 5827 5827 5825 5824 5823 5823 5823 5823 5823 5824 5825 5825 5826 5827 5829 5830 5831 5832
5790 5793 5796 5800 5803 5806 5808 5810 5812 5814 5815 5817 5819 5820 5822 5822 5823 5823 5824 5824 5825 5825 5825 5825 5824 5824 5823 5822 5821 5821 5820 5819 5819 5819 5820 5820 5821 5821 5822 5823 5825 5826 5827 5828
5782 5786 5789 5792 5796 5798 5800 5803 5805 5807 5809 5811 5813 5815 5815 5816 5817 5818 5819 5819 5819 5819 5819 5819 5819 5818 5818 5817 5817 5816 5816 5815 5815 5815 5816 5816 5816 5817 5818 5820 5821 5822 5823 5824
5774 5777 5780 5783 5788 5789 5795 5796 5798 5800 5802 5804 5806 5807 5808 5809 5810 5811 5812 5813 5813 5813 5813 5813 5813 5813 5813 5812 5812 5811 5811 5811 5811 5811 5812 5812 5813 5813 5815 5816 5817 5818 5819 5820
5765 5769 5771 5774 5777 5780 5785 5788 5791 5793 5794 5797 5799 5800 5801 5802 5803 5804 5804 5805 5806 5807 5807 5807 5807 5806 5806 5806 5806 5806 5805 5806 5806 5807 5807 5808 5808 5809 5810 5811 5812 5813 5814 5815
5756 5759 5763 5765 5768 5771 5777 5780 5782 5785 5786 5790 5791 5792 5793 5794 5795 5796 5797 5797 5798 5799 5799 5799 5800 5799 5799 5799 5800 5800 5800 5800 5801 5801 5802 5803 5803 5804 5806 5806 5807 5808 5809 5809
5746 5749 5752 5756 5758 5762 5767 5770 5774 5777 5780 5782 5782 5783 5785 5786 5788 5789 5789 5790 5790 5791 5791 5792 5792 5792 5792 5792 5793 5793 5793 5794 5795 5795 5796 5797 5798 5799 5800 5801 5802 5802 5803 5803
5737 5740 5743 5747 5750 5755 5758 5761 5765 5768 5771 5772 5774 5775 5777 5778 5779 5780 5781 5782 5782 5783 5783 5784 5784 5784 5784 5785 5785 5786 5786 5787 5787 5788 5789 5790 5791 5792 5794 5794 5795 5796 5796 5796
5728 5732 5735 5739 5744 5747 5750 5753 5756 5759 5761 5764 5765 5767 5768 5770 5771 5772 5773 5774 5774 5775 5775 5776 5776 5776 5777 5777 5778 5778 5779 5780 5780 5781 5782 5783 5784 5785 5786 5787 5788 5788 5788 5789
5720 5723 5727 5731 5734 5738 5741 5744 5747 5750 5752 5755 5757 5758 5760 5761 5763 5764 5765 5765 5766 5766 5767 5767 5768 5769 5769 5769 5770 5771 5772 5772 5773 5774 5775 5776 5777 5778 5779 5780 5780 5780 5781 5781
5712 5715 5719 5722 5726 5729 5732 5735 5739 5741 5744 5746 5748 5749 5751 5752 5754 5755 5756 5757 5757 5758 5758 5759 5760 5760 5761 5761 5762 5763 5764 5765 5765 5766 5768 5769 5770 5771 5771 5772 5773 5773 5774 5774
5705 5708 5712 5715 5718 5722 5725 5727 5730 5733 5736 5738 5739 5741 5742 5744 5745 5746 5747 5748 5749 5749 5750 5751 5751 5752 5753 5754 5754 5755 5756 5757 5758 5759 5760 5762 5763 5764 5764 5765 5766 5766 5766 5766